Tracking 18852 objects as of 24-Nov-2017
HD Live streaming from Space Station
objects crossing your sky now

OSCAR 36 (UOSAT 12)

Track OSCAR 36 (UOSAT 12) now!
10-day predictions
OSCAR 36 (UOSAT 12) is classified as:


NORAD ID: 25693
Int'l Code: 1999-021A
Perigee: 602.1 km
Apogee: 665.9 km
Inclination: 64.6 °
Period: 97.2 minutes
Semi major axis: 7005 km
RCS: 1.4285 m2 (large)
Launch date: April 21, 1999
Source: United Kingdom (UK)
Launch site: TYURATAM MISSILE AND SPACE COMPLEX (TTMTR)
Uplink (MHz): 145.960
Downlink (MHz): 437.400/437.025
Beacon (MHz): 437.400
Mode: 38400bps FSK
Call sign: UO121-11 -12
Status: Inactive


Used for email and communication services to remote areas.
aabbcc
Your satellite tracking list
Your tracking list is empty




NASA's NSSDC Master Catalog

Two Line Element Set (TLE):
1 25693U 99021A   17327.64253740 -.00000048  00000-0  12959-4 0  9990
2 25693  64.5564 354.2209 0045531 291.0469  68.5770 14.80770421  3775
Source of the keplerian elements: AFSPC